Santa Ana, CA

2:19 PM PDT on April 21, 2018 (GMT -0700)
John Wayne-Orange County

Weather History for KSNA - July, 2012

Change the Weather History Date:

Friday, July 13, 2012

  Actual Average Record
Temperature  
Mean Temperature 75 °F 71 °F  
Max Temperature 81 °F 78 °F 87 °F (2006)
Min Temperature 68 °F 64 °F 61 °F (2001)
Degree Days  
Heating Degree Days 0 0  
Month to date heating degree days 0 0  
Since 1 June heating degree days 0 7  
Since 1 July heating degree days 0 0  
Cooling Degree Days 10 6  
Month to date cooling degree days 69 69  
Year to date cooling degree days 225 212  
Since 1 June cooling degree days 155 145  
Growing Degree Days 24 (Base 50)    
Moisture  
Dew Point 65 °F    
Average Humidity 74    
Maximum Humidity 90    
Minimum Humidity 58    
Precipitation  
Precipitation 0.12 in 0.00 in 0.12 in (2012)
Month to date precipitation 0.16 0.01  
Year to date precipitation 4.03 8.97  
Since 1 July precipitation 0.16  
Snow  
Snow 0.00 in - - ()
Month to date snowfall 0.0  
Year to date snowfall 0.0  
Snow Depth 0.00 in    
Sea Level Pressure  
Sea Level Pressure 29.87 in    
Wind  
Wind Speed 3 mph (SW)    
Max Wind Speed 9 mph    
Max Gust Speed -    
Visibility 7 miles    
Events Rain    
T = Trace of Precipitation, MM = Missing Value Source: NWS Daily Summary

Daily Weather History Graph

Daily Weather History Graph

Search for Another Location

Airport or City:

Astronomy

Jul. 13, 2012 Rise Set
Actual Time 5:51 AM PDT 8:03 PM PDT
Civil Twilight 5:22 AM PDT 8:31 PM PDT
Nautical Twilight 4:48 AM PDT 9:06 PM PDT
Astronomical Twilight 4:10 AM PDT 9:43 PM PDT
Moon 1:27 AM PDT (7/13) 3:38 PM PDT (7/13)
Length of Visible Light 15h 08m
Length of Day
14h 11m
Waning Crescent, 25% of the Moon is Illuminated
Jul 13
Waning Crescent
Jul 18
New
Jul 26
First Quarter
Aug 1
Full
Aug 9
Last Quarter

Hourly Weather History & Observations

Time (PDT) Temp. Heat Index Dew Point Humidity Pressure Visibility Wind Dir Wind Speed Gust Speed Precip Events Conditions
12:53 AM 69.1 °F - 64.9 °F 87% 29.86 in 6.0 mi ENE 4.6 mph - 0.01 in Rain Light Rain
1:53 AM 69.1 °F - 64.9 °F 87% 29.84 in 6.0 mi Calm Calm - 0.01 in   Mostly Cloudy
2:34 AM 69.8 °F - 64.4 °F 83% 29.86 in 5.0 mi Variable 4.6 mph - 0.02 in Rain Light Rain
2:45 AM 69.8 °F - 66.2 °F 88% 29.86 in 6.0 mi Calm Calm - 0.02 in Rain Light Rain
2:53 AM 70.0 °F - 66.0 °F 87% 29.85 in 6.0 mi Calm Calm - 0.02 in   Overcast
3:05 AM 69.8 °F - 66.2 °F 88% 29.84 in 4.0 mi Calm Calm - N/A Rain Light Rain
3:53 AM 69.1 °F - 64.9 °F 87% 29.84 in 7.0 mi Calm Calm - 0.03 in Rain Light Rain
4:41 AM 69.8 °F - 64.4 °F 83% 29.85 in 4.0 mi SW 5.8 mph - 0.03 in Rain Light Rain
4:53 AM 69.1 °F - 64.9 °F 87% 29.85 in 5.0 mi SSW 5.8 mph - 0.04 in Rain Light Rain
5:29 AM 68.0 °F - 64.4 °F 88% 29.86 in 6.0 mi SW 5.8 mph - 0.00 in Rain Light Rain
5:53 AM 68.0 °F - 64.0 °F 87% 29.87 in 5.0 mi Calm Calm - 0.00 in   Mostly Cloudy
6:47 AM 69.8 °F - 64.4 °F 83% 29.88 in 4.0 mi Calm Calm - N/A   Mostly Cloudy
6:53 AM 69.1 °F - 64.9 °F 87% 29.87 in 4.0 mi Calm Calm - N/A   Mostly Cloudy
7:53 AM 69.1 °F - 64.9 °F 87% 29.89 in 5.0 mi Calm Calm - N/A   Overcast
8:53 AM 71.1 °F - 66.0 °F 84% 29.90 in 4.0 mi Calm Calm - 0.02 in   Overcast
9:53 AM 72.0 °F - 66.0 °F 81% 29.91 in 5.0 mi Calm Calm - N/A   Overcast
10:35 AM 73.4 °F - 66.2 °F 78% 29.91 in 5.0 mi Calm Calm - N/A   Haze
10:53 AM 75.9 °F - 66.9 °F 74% 29.91 in 5.0 mi Calm Calm - N/A   Haze
11:53 AM 77.0 °F - 66.0 °F 69% 29.91 in 6.0 mi Calm Calm - N/A   Haze
12:53 PM 77.0 °F - 64.9 °F 66% 29.90 in 7.0 mi WNW 5.8 mph - N/A   Mostly Cloudy
1:53 PM 78.1 °F - 64.9 °F 64% 29.88 in 7.0 mi NW 4.6 mph - N/A   Mostly Cloudy
2:53 PM 80.1 °F 82.1 °F 66.0 °F 62% 29.87 in 8.0 mi Variable 5.8 mph - N/A   Mostly Cloudy
3:53 PM 79.0 °F - 64.9 °F 62% 29.85 in 10.0 mi WSW 4.6 mph - N/A   Mostly Cloudy
4:53 PM 80.1 °F 81.7 °F 64.0 °F 58% 29.83 in 9.0 mi SW 9.2 mph - N/A   Mostly Cloudy
5:53 PM 75.9 °F - 63.0 °F 64% 29.83 in 10.0 mi SW 9.2 mph - N/A   Mostly Cloudy
6:53 PM 72.0 °F - 62.1 °F 71% 29.85 in 10.0 mi SW 8.1 mph - N/A   Mostly Cloudy
7:53 PM 71.1 °F - 62.1 °F 73% 29.86 in 10.0 mi SSW 6.9 mph - N/A   Mostly Cloudy
8:53 PM 69.1 °F - 62.1 °F 78% 29.88 in 10.0 mi SSW 5.8 mph - N/A   Mostly Cloudy
9:53 PM 69.1 °F - 62.1 °F 78% 29.90 in 10.0 mi SW 4.6 mph - N/A   Scattered Clouds
10:53 PM 68.0 °F - 62.1 °F 81% 29.91 in 10.0 mi WSW 3.5 mph - N/A   Scattered Clouds
11:53 PM 68.0 °F - 62.1 °F 81% 29.91 in 10.0 mi SW 9.2 mph - N/A   Clear